"Pseudo-MPEC" for ZTF106o

Created 2025 Oct 6 21:35:20 UT using Find_Orb

Click here for an explanation of pseudo-MPECs

 
 Astrometry: 
     ZTF106o*tC2025 09 30.32631902 32 25.926+28 29 00.92   ~A1LK 16.82gUNEOCPI41
     ZTF106o tC2025 09 30.32666702 32 33.535+28 30 50.00   ~A1LK 16.82gUNEOCPI41
     ZTF106o tC2025 09 30.32678902 32 36.265+28 31 29.54   ~A1LK 16.79gUNEOCPI41
     ZTF106o tC2025 09 30.32713702 32 44.079+28 33 20.54   ~A1LK 16.79gUNEOCPI41

Station data:
(I41) Palomar Mountain--ZTF  (N33.357336 W116.859780)  US/California.
   Observers B. T. Bolin, Z. T. F. Collaboration. Measurers B. T. Bolin,
   Z.-Y. Lin, F. J. Masci. 1.2-m f/2.4 Schmidt.

Orbital elements:  ZTF106o
   Perigee 2025 Sep 30.533256 +/- 26.3 TT = 12:47:53.3 (JD 2460949.033256)
Epoch 2025 Sep 30.0 TT = JDT 2460948.5                           AutoNEOCP
q280513.6838 +/- 4.83e+7            (J2000 equator)
H   28.25 G 0.15                    Peri.   67.108758 +/- 59
                                    Node    12.433905 +/- 90
e  55.64051710 +/- 0.24             Incl.   52.084730 +/- 15
From 4 observations 2025 Sept. 30 (70.7 sec); mean residual 0".59
Residuals in arcseconds: 
250930 I41  .66+  .52+    250930 I41  .48-  .06-    
250930 I41  .77-  .86-    250930 I41  .60+  .40+    

Ephemerides (geocentric):
Date (UTC) HH   RA             Dec           delta  r     elong  mag " sig PA
---- --------  ------------   ------------  ------ ------ -----  --- --------
2025 10 06 22  11 45 22.957   +19 30 52.06  .03273 .97119  29.5 29??  51d  64
2025 10 06 23  11 45 26.788   +19 29 46.89  .03295 .97099  29.5 29??  51d  64
2025 10 07 00  11 45 30.576   +19 28 42.43  .03316 .97080  29.5 29??  51d  65
2025 10 07 01  11 45 34.320   +19 27 38.67  .03338 .97061  29.5 29??  51d  65
2025 10 07 02  11 45 38.021   +19 26 35.58  .03359 .97041  29.5 29??  51d  65
2025 10 07 03  11 45 41.681   +19 25 33.17  .03380 .97022  29.5 29??  51d  65
2025 10 07 04  11 45 45.300   +19 24 31.40  .03402 .97003  29.6 29??  51d  65
2025 10 07 05  11 45 48.879   +19 23 30.28  .03423 .96983  29.6 29??  51d  65
2025 10 07 06  11 45 52.419   +19 22 29.79  .03445 .96964  29.6 29??  51d  65
2025 10 07 07  11 45 55.921   +19 21 29.91  .03466 .96945  29.6 29??  52d  66
2025 10 07 08  11 45 59.385   +19 20 30.64  .03488 .96926  29.6 29??  52d  66
2025 10 07 09  11 46 02.812   +19 19 31.96  .03509 .96906  29.6 29??  52d  66
2025 10 07 10  11 46 06.203   +19 18 33.86  .03530 .96887  29.6 29??  52d  66
2025 10 07 11  11 46 09.559   +19 17 36.34  .03552 .96868  29.6 29??  51d  66
2025 10 07 12  11 46 12.880   +19 16 39.37  .03573 .96849  29.7 29??  51d  66
2025 10 07 13  11 46 16.167   +19 15 42.95  .03595 .96830  29.7 29??  51d  65
2025 10 07 14  11 46 19.421   +19 14 47.07  .03616 .96810  29.7 29??  51d  65
2025 10 07 15  11 46 22.642   +19 13 51.71  .03638 .96791  29.7 29??  51d  65
2025 10 07 16  11 46 25.831   +19 12 56.87  .03659 .96772  29.7 29??  51d  65
2025 10 07 17  11 46 28.989   +19 12 02.55  .03680 .96753  29.7 29??  51d  65
2025 10 07 18  11 46 32.116   +19 11 08.72  .03702 .96734  29.7 29??  51d  65
2025 10 07 19  11 46 35.212   +19 10 15.38  .03723 .96715  29.8 29??  51d  65
2025 10 07 20  11 46 38.279   +19 09 22.52  .03745 .96696  29.8 29??  51d  65
2025 10 07 21  11 46 41.317   +19 08 30.13  .03766 .96677  29.8 29??  51d  65
2025 10 07 22  11 46 44.326   +19 07 38.21  .03788 .96657  29.8 29??  51d  65
2025 10 07 23  11 46 47.307   +19 06 46.74  .03809 .96638  29.8 29??  51d  65
2025 10 08 00  11 46 50.261   +19 05 55.71  .03831 .96619  29.8 29??  51d  65
2025 10 08 01  11 46 53.188   +19 05 05.13  .03852 .96600  29.9 29??  51d  65
2025 10 08 02  11 46 56.088   +19 04 14.97  .03874 .96581  29.9 29??  51d  65
2025 10 08 03  11 46 58.962   +19 03 25.24  .03895 .96562  29.9 29??  51d  64
2025 10 08 04  11 47 01.811   +19 02 35.92  .03917 .96543  29.9 29??  51d  64
2025 10 08 05  11 47 04.635   +19 01 47.01  .03938 .96524  29.9 29??  51d  64
2025 10 08 06  11 47 07.434   +19 00 58.51  .03960 .96505  29.9 29??  51d  64
2025 10 08 07  11 47 10.209   +19 00 10.39  .03981 .96486  29.9 29??  51d  64
2025 10 08 08  11 47 12.960   +18 59 22.66  .04003 .96467  30.0 29??  51d  64
2025 10 08 09  11 47 15.689   +18 58 35.31  .04024 .96448  30.0 29??  51d  64
2025 10 08 10  11 47 18.394   +18 57 48.34  .04046 .96429  30.0 29??  51d  63
2025 10 08 11  11 47 21.077   +18 57 01.73  .04067 .96410  30.0 29??  51d  63
2025 10 08 12  11 47 23.738   +18 56 15.48  .04089 .96392  30.0 29??  50d  63
2025 10 08 13  11 47 26.377   +18 55 29.58  .04110 .96373  30.1 29??  50d  63
2025 10 08 14  11 47 28.995   +18 54 44.03  .04132 .96354  30.1 29??  50d  62
2025 10 08 15  11 47 31.592   +18 53 58.83  .04153 .96335  30.1 29??  50d  62
2025 10 08 16  11 47 34.169   +18 53 13.96  .04175 .96316  30.1 29??  49d  62
2025 10 08 17  11 47 36.726   +18 52 29.42  .04196 .96297  30.1 29??  49d  63
2025 10 08 18  11 47 39.263   +18 51 45.20  .04218 .96278  30.1 29??  49d  63
2025 10 08 19  11 47 41.780   +18 51 01.30  .04239 .96259  30.2 29??  49d  63
2025 10 08 20  11 47 44.278   +18 50 17.72  .04261 .96241  30.2 29??  49d  63
2025 10 08 21  11 47 46.758   +18 49 34.45  .04282 .96222  30.2 29??  49d  63